Weather in Rapid City

United States     44°04′50″N   103°13′50″W
temp.,
°C
wind,
m/s
gust,
m/s
humid.,
%
clouds,
%
prec.,
mm/h
press.,
hPa
HPBL,
m
23 may, mon
mon2300:00+5wnw117493 0.6 102010
03:00+4ssw1177100 0.0 101911
06:00+4ssw347842 0.1 102071
09:00+11ssw55616 0.1 1018852
12:00+13sse755879 0.7 10161264
15:00+12sse7660100 0.4 10161079
18:00+11sse6667100 0.9 1016751
21:00+6s47845 0.1 1017162
24 may, tue
tue2400:00+5sw228673 0.1 101718
03:00+4sw118323 0.0 101710
06:00+5wnw327499 0.0 101720
09:00+12ene335671 0.0 1016660
12:00+15ene4343100 0.0 10151644
15:00+16e4339100 0.0 10142225
18:00+15ne1150100 0.0 1014139
21:00+10se2464100 0.0 1015102
25 may, wed
wed2500:00+8s4776100 0.0 1016129
03:00+6ssw22822 0.0 101521
06:00+7sw22763 0.0 101532
09:00+15sse54503 0.0 1012685
12:00+18se984223 0.0 10101130
15:00+21e643417 0.0 10081912
18:00+20nne263893 0.0 10082198
21:00+14wnw32615 0.0 101012
26 may, thu
thu2600:00+12wsw33654 0.0 101119
03:00+11w33625 0.0 101225
06:00+12w33613 0.0 101234
09:00+21nnw12384 0.0 1011971
12:00+23ne443534 0.0 10111782
15:00+24ne543512 0.0 10102159
18:00+23ne54343 0.0 10101556
21:00+15nne22581 0.0 101111
27 may, fri
fri2700:00+13wsw22620 0.0 101212
03:00+13sw335952 0.0 101115
06:00+14ssw335972 0.0 101040
09:00+21sse794497 0.0 1007545
12:00+26s8103453 0.0 10051212
15:00+31sse6102269 0.0 10002680
18:00+19s4761100 0.3 1001206
21:00+17nw71374100 2.2 1005383